| time (UTC) | temp C | wind direction | speed KPH | gust KPH | rain 1hr cm | rain 24hr cm | rain mn cm | humidity % | barometer mb |
| 20260901110027 | 26 | 292 | 0.0 | 0.0 | 0.00 | 0.00 | 0.00 | 80 | 1014.8 |
| 20260901105527 | 26 | 292 | 0.0 | 3.2 | 0.00 | 0.00 | 0.00 | 80 | 1014.8 |
| 20260901105027 | 26 | 262 | 0.0 | 3.2 | 0.00 | 0.00 | 0.00 | 80 | 1014.8 |
| 20260901104527 | 26 | 287 | 1.6 | 1.6 | 0.00 | 0.00 | 0.00 | 80 | 1014.8 |
| 20260901103527 | 26 | 123 | 0.0 | 3.2 | 0.00 | 0.00 | 0.00 | 80 | 1014.7 |
| 20260901103027 | 26 | 254 | 1.6 | 3.2 | 0.00 | 0.00 | 0.00 | 80 | 1014.6 |
| 20260901102527 | 26 | 196 | 0.0 | 4.8 | 0.00 | 0.00 | 0.00 | 79 | 1014.5 |
| 20260901101027 | 26 | 266 | 0.0 | 1.6 | 0.00 | 0.00 | 0.00 | 79 | 1014.6 |
| 20260901100527 | 26 | 284 | 0.0 | 1.6 | 0.00 | 0.00 | 0.00 | 79 | 1014.7 |
| 20260901100027 | 26 | 89 | 0.0 | 1.6 | 0.00 | 0.00 | 0.00 | 79 | 1014.7 |
| 20260901095527 | 26 | 202 | 0.0 | 4.8 | 0.00 | 0.00 | 0.00 | 79 | 1014.7 |
| 20260901095026 | 26 | 198 | 0.0 | 4.8 | 0.00 | 0.00 | 0.00 | 79 | 1014.8 |
| 20260901094026 | 26 | 202 | 3.2 | 4.8 | 0.00 | 0.00 | 0.00 | 78 | 1014.9 |
| 20260901093526 | 26 | 178 | 0.0 | 0.0 | 0.00 | 0.00 | 0.00 | 78 | 1014.8 |
| 20260901093026 | 26 | 178 | 0.0 | 0.0 | 0.00 | 0.00 | 0.00 | 78 | 1015.0 |
| 20260901092026 | 27 | 206 | 0.0 | 1.6 | 0.00 | 0.00 | 0.00 | 77 | 1015.1 |
| 20260901091526 | 27 | 209 | 0.0 | 1.6 | 0.00 | 0.00 | 0.00 | 77 | 1015.2 |
| 20260901091026 | 27 | 208 | 0.0 | 1.6 | 0.00 | 0.00 | 0.00 | 77 | 1015.2 |
| 20260901090526 | 27 | 151 | 0.0 | 1.6 | 0.00 | 0.00 | 0.00 | 77 | 1015.1 |
| 20260901090026 | 27 | 136 | 0.0 | 1.6 | 0.00 | 0.00 | 0.00 | 76 | 1015.2 |
| 20260901085526 | 27 | 136 | 0.0 | 3.2 | 0.00 | 0.00 | 0.00 | 77 | 1015.1 |
| 20260901085026 | 27 | 137 | 0.0 | 4.8 | 0.00 | 0.00 | 0.00 | 77 | 1015.0 |
| 20260901084526 | 27 | 196 | 0.0 | 4.8 | 0.00 | 0.00 | 0.00 | 76 | 1015.0 |
| 20260901084026 | 27 | 134 | 1.6 | 4.8 | 0.00 | 0.00 | 0.00 | 76 | 1014.9 |
| 20260901083526 | 27 | 203 | 0.0 | 4.8 | 0.00 | 0.00 | 0.00 | 76 | 1014.9 |
| 20260901083026 | 27 | 221 | 0.0 | 0.0 | 0.00 | 0.00 | 0.00 | 75 | 1014.8 |
| 20260901082526 | 27 | 134 | 0.0 | 0.0 | 0.00 | 0.00 | 0.00 | 75 | 1014.9 |
| 20260901082025 | 27 | 197 | 0.0 | 0.0 | 0.00 | 0.00 | 0.00 | 75 | 1014.8 |
| 20260901081526 | 27 | 164 | 0.0 | 3.2 | 0.00 | 0.00 | 0.00 | 75 | 1014.8 |
| 20260901081026 | 27 | 192 | 0.0 | 3.2 | 0.00 | 0.00 | 0.00 | 74 | 1014.9 |
| 20260901080025 | 27 | 223 | 0.0 | 4.8 | 0.00 | 0.00 | 0.00 | 74 | 1015.0 |
| 20260901075525 | 27 | 150 | 4.8 | 4.8 | 0.00 | 0.00 | 0.00 | 74 | 1015.0 |
| 20260901075025 | 27 | 207 | 0.0 | 1.6 | 0.00 | 0.00 | 0.00 | 73 | 1014.9 |
| 20260901074525 | 27 | 123 | 0.0 | 3.2 | 0.00 | 0.00 | 0.00 | 73 | 1014.9 |
| 20260901074025 | 27 | 128 | 1.6 | 3.2 | 0.00 | 0.00 | 0.00 | 73 | 1014.9 |
| 20260901073525 | 27 | 180 | 0.0 | 1.6 | 0.00 | 0.00 | 0.00 | 72 | 1015.0 |
| 20260901073025 | 27 | 123 | 0.0 | 0.0 | 0.00 | 0.00 | 0.00 | 72 | 1014.9 |
| 20260901072525 | 27 | 194 | 0.0 | 4.8 | 0.00 | 0.00 | 0.00 | 72 | 1015.0 |
| 20260901072025 | 28 | 133 | 4.8 | 4.8 | 0.00 | 0.00 | 0.00 | 71 | 1015.0 |
| 20260901071525 | 28 | 161 | 0.0 | 0.0 | 0.00 | 0.00 | 0.00 | 71 | 1015.0 |
| 20260901071025 | 28 | 136 | 0.0 | 0.0 | 0.00 | 0.00 | 0.00 | 70 | 1014.9 |
| 20260901070525 | 28 | 136 | 0.0 | 4.8 | 0.00 | 0.00 | 0.00 | 70 | 1014.9 |
| 20260901070025 | 28 | 136 | 0.0 | 4.8 | 0.00 | 0.00 | 0.00 | 70 | 1015.0 |
| 20260901065525 | 28 | 136 | 0.0 | 4.8 | 0.00 | 0.00 | 0.00 | 70 | 1014.9 |
| 20260901065025 | 28 | 180 | 0.0 | 3.2 | 0.00 | 0.00 | 0.00 | 70 | 1014.9 |
| 20260901064525 | 28 | 194 | 0.0 | 4.8 | 0.00 | 0.00 | 0.00 | 70 | 1014.7 |
| 20260901064024 | 28 | 218 | 3.2 | 4.8 | 0.00 | 0.00 | 0.00 | 69 | 1014.7 |
| 20260901063524 | 28 | 254 | 0.0 | 3.2 | 0.00 | 0.00 | 0.00 | 69 | 1014.8 |
| 20260901063025 | 28 | 204 | 0.0 | 4.8 | 0.00 | 0.00 | 0.00 | 68 | 1014.7 |
| 20260901062524 | 28 | 101 | 4.8 | 4.8 | 0.00 | 0.00 | 0.00 | 68 | 1014.6 |
| 20260901062024 | 28 | 148 | 1.6 | 4.8 | 0.00 | 0.00 | 0.00 | 68 | 1014.6 |
| 20260901061524 | 28 | 153 | 1.6 | 9.7 | 0.00 | 0.00 | 0.00 | 67 | 1014.5 |
| 20260901061024 | 28 | 205 | 3.2 | 9.7 | 0.00 | 0.00 | 0.00 | 67 | 1014.6 |
| 20260901060524 | 29 | 236 | 0.0 | 6.4 | 0.00 | 0.00 | 0.00 | 67 | 1014.6 |
| 20260901055524 | 29 | 120 | 0.0 | 8.0 | 0.00 | 0.00 | 0.00 | 66 | 1014.6 |
| 20260901054524 | 29 | 161 | 1.6 | 9.7 | 0.00 | 0.00 | 0.00 | 66 | 1014.5 |
| 20260901054024 | 29 | 132 | 1.6 | 3.2 | 0.00 | 0.00 | 0.00 | 65 | 1014.5 |
| 20260901053524 | 30 | 198 | 0.0 | 4.8 | 0.00 | 0.00 | 0.00 | 65 | 1014.5 |
| 20260901053024 | 30 | 128 | 1.6 | 4.8 | 0.00 | 0.00 | 0.00 | 64 | 1014.4 |
| 20260901052524 | 30 | 207 | 3.2 | 4.8 | 0.00 | 0.00 | 0.00 | 64 | 1014.4 |
| 20260901052024 | 30 | 196 | 1.6 | 6.4 | 0.00 | 0.00 | 0.00 | 64 | 1014.3 |
| 20260901051524 | 30 | 198 | 6.4 | 9.7 | 0.00 | 0.00 | 0.00 | 63 | 1014.3 |
| 20260901051024 | 30 | 146 | 3.2 | 9.7 | 0.00 | 0.00 | 0.00 | 63 | 1014.2 |
| 20260901050523 | 30 | 242 | 1.6 | 4.8 | 0.00 | 0.00 | 0.00 | 62 | 1014.2 |
| 20260901045024 | 30 | 219 | 1.6 | 8.0 | 0.00 | 0.00 | 0.00 | 60 | 1014.2 |
| 20260901044524 | 30 | 111 | 6.4 | 8.0 | 0.00 | 0.00 | 0.00 | 60 | 1014.1 |
| 20260901044024 | 30 | 136 | 3.2 | 8.0 | 0.00 | 0.00 | 0.00 | 60 | 1014.1 |
| 20260901043524 | 31 | 287 | 1.6 | 6.4 | 0.00 | 0.00 | 0.00 | 59 | 1014.0 |
| 20260901043023 | 31 | 113 | 3.2 | 9.7 | 0.00 | 0.00 | 0.00 | 59 | 1014.1 |
| 20260901042524 | 31 | 150 | 3.2 | 9.7 | 0.00 | 0.00 | 0.00 | 58 | 1014.0 |
| 20260901042024 | 31 | 248 | 0.0 | 4.8 | 0.00 | 0.00 | 0.00 | 58 | 1014.0 |
| 20260901041524 | 31 | 179 | 1.6 | 4.8 | 0.00 | 0.00 | 0.00 | 57 | 1014.0 |
| 20260901041023 | 31 | 133 | 4.8 | 4.8 | 0.00 | 0.00 | 0.00 | 57 | 1014.0 |
| 20260901040023 | 31 | 209 | 3.2 | 11.3 | 0.00 | 0.00 | 0.00 | 56 | 1014.0 |
| 20260901035523 | 31 | 125 | 11.3 | 11.3 | 0.00 | 0.00 | 0.00 | 56 | 1013.8 |
| 20260901035023 | 31 | 162 | 8.0 | 11.3 | 0.00 | 0.00 | 0.00 | 55 | 1013.8 |
| 20260901034523 | 32 | 157 | 4.8 | 11.3 | 0.00 | 0.00 | 0.00 | 55 | 1013.9 |
| 20260901033523 | 32 | 151 | 3.2 | 14.5 | 0.00 | 0.00 | 0.00 | 53 | 1013.8 |
| 20260901033022 | 32 | 149 | 6.4 | 14.5 | 0.00 | 0.00 | 0.00 | 53 | 1013.8 |
| 20260901032522 | 32 | 122 | 1.6 | 8.0 | 0.00 | 0.00 | 0.00 | 52 | 1013.7 |
| 20260901032022 | 32 | 135 | 4.8 | 11.3 | 0.00 | 0.00 | 0.00 | 51 | 1013.7 |
| 20260901031522 | 32 | 175 | 3.2 | 11.3 | 0.00 | 0.00 | 0.00 | 51 | 1013.6 |
| 20260901030522 | 32 | 129 | 3.2 | 4.8 | 0.00 | 0.00 | 0.00 | 49 | 1013.5 |
| 20260901030022 | 32 | 116 | 4.8 | 14.5 | 0.00 | 0.00 | 0.00 | 48 | 1013.4 |
| 20260901025522 | 32 | 130 | 11.3 | 14.5 | 0.00 | 0.00 | 0.00 | 47 | 1013.4 |
| 20260901025022 | 32 | 210 | 1.6 | 14.5 | 0.00 | 0.00 | 0.00 | 46 | 1013.3 |
| 20260901024522 | 32 | 90 | 4.8 | 14.5 | 0.00 | 0.00 | 0.00 | 45 | 1013.2 |
| 20260901024021 | 33 | 101 | 4.8 | 14.5 | 0.00 | 0.00 | 0.00 | 44 | 1013.1 |
| 20260901023522 | 33 | 141 | 4.8 | 14.5 | 0.00 | 0.00 | 0.00 | 43 | 1013.0 |
| 20260901023021 | 33 | 100 | 1.6 | 14.5 | 0.00 | 0.00 | 0.00 | 43 | 1012.9 |
| 20260901022522 | 33 | 126 | 1.6 | 19.3 | 0.00 | 0.00 | 0.00 | 42 | 1012.8 |
| 20260901022021 | 33 | 158 | 3.2 | 19.3 | 0.00 | 0.00 | 0.00 | 41 | 1012.6 |
| 20260901021521 | 33 | 184 | 6.4 | 9.7 | 0.00 | 0.00 | 0.00 | 40 | 1012.7 |
| 20260901021021 | 33 | 180 | 1.6 | 9.7 | 0.00 | 0.00 | 0.00 | 40 | 1012.4 |
| 20260901020521 | 33 | 136 | 4.8 | 9.7 | 0.00 | 0.00 | 0.00 | 40 | 1012.3 |
| 20260901015521 | 33 | 126 | 3.2 | 4.8 | 0.00 | 0.00 | 0.00 | 39 | 1012.2 |
| 20260901014521 | 34 | 141 | 3.2 | 12.9 | 0.00 | 0.00 | 0.00 | 39 | 1012.1 |
| 20260901013021 | 34 | 117 | 1.6 | 9.7 | 0.00 | 0.00 | 0.00 | 39 | 1012.0 |
| 20260901012521 | 34 | 118 | 3.2 | 9.7 | 0.00 | 0.00 | 0.00 | 39 | 1012.0 |
| 20260901012021 | 34 | 168 | 1.6 | 4.8 | 0.00 | 0.00 | 0.00 | 39 | 1011.9 |
| 20260901011521 | 35 | 104 | 1.6 | 4.8 | 0.00 | 0.00 | 0.00 | 39 | 1011.8 |
| 20260901011021 | 35 | 90 | 0.0 | 6.4 | 0.00 | 0.00 | 0.00 | 39 | 1011.8 |
| 20260901010520 | 35 | 109 | 0.0 | 6.4 | 0.00 | 0.00 | 0.00 | 38 | 1011.7 |
| 20260901010021 | 35 | 103 | 0.0 | 0.0 | 0.00 | 0.00 | 0.00 | 38 | 1011.7 |
| 20260901005521 | 35 | 109 | 0.0 | 1.6 | 0.00 | 0.00 | 0.00 | 38 | 1011.6 |
| 20260901005020 | 35 | 109 | 0.0 | 1.6 | 0.00 | 0.00 | 0.00 | 38 | 1011.6 |
| 20260901004020 | 35 | 109 | 0.0 | 3.2 | 0.00 | 0.00 | 0.00 | 38 | 1011.7 |
| 20260901003520 | 36 | 109 | 0.0 | 6.4 | 0.00 | 0.00 | 0.00 | 37 | 1011.6 |
| 20260901003020 | 36 | 98 | 0.0 | 11.3 | 0.00 | 0.00 | 0.00 | 37 | 1011.6 |
| 20260901002520 | 36 | 101 | 3.2 | 11.3 | 0.00 | 0.00 | 0.00 | 37 | 1011.6 |
| 20260901001520 | 36 | 106 | 6.4 | 9.7 | 0.00 | 0.00 | 0.00 | 37 | 1011.6 |
| 20260901000520 | 36 | 112 | 6.4 | 12.9 | 0.00 | 0.00 | 0.00 | 37 | 1011.6 |
| 20260901000020 | 36 | 98 | 9.7 | 12.9 | 0.00 | 0.00 | 0.00 | 37 | 1011.5 |
| 20260831235520 | 36 | 157 | 4.8 | 12.9 | 0.00 | 0.00 | 0.00 | 37 | 1011.5 |
| 20260831235020 | 36 | 123 | 0.0 | 1.6 | 0.00 | 0.00 | 0.00 | 37 | 1011.5 |
| 20260831234520 | 36 | 123 | 1.6 | 12.9 | 0.00 | 0.00 | 0.00 | 37 | 1011.5 |
| 20260831234020 | 36 | 90 | 1.6 | 12.9 | 0.00 | 0.00 | 0.00 | 37 | 1011.5 |
| 20260831233020 | 36 | 54 | 1.6 | 12.9 | 0.00 | 0.00 | 0.00 | 37 | 1011.5 |
| 20260831232519 | 37 | 170 | 3.2 | 14.5 | 0.00 | 0.00 | 0.00 | 37 | 1011.5 |
| 20260831232019 | 37 | 320 | 3.2 | 14.5 | 0.00 | 0.00 | 0.00 | 37 | 1011.5 |
| 20260831231020 | 37 | 90 | 9.7 | 14.5 | 0.00 | 0.00 | 0.00 | 37 | 1011.5 |
| 20260831230520 | 37 | 105 | 3.2 | 12.9 | 0.00 | 0.00 | 0.00 | 38 | 1011.5 |
| 20260831230019 | 37 | 115 | 6.4 | 9.7 | 0.00 | 0.00 | 0.00 | 38 | 1011.4 |
| 20260831225521 | 36 | 115 | 6.4 | 12.9 | 0.00 | 0.00 | 0.00 | 38 | 1011.5 |
| 20260831224519 | 36 | 111 | 1.6 | 3.2 | 0.00 | 0.00 | 0.00 | 38 | 1011.6 |
| 20260831224019 | 36 | 119 | 3.2 | 11.3 | 0.00 | 0.00 | 0.00 | 39 | 1011.6 |
| 20260831223019 | 36 | 111 | 1.6 | 4.8 | 0.00 | 0.00 | 0.00 | 39 | 1011.8 |
| 20260831222519 | 36 | 82 | 1.6 | 4.8 | 0.00 | 0.00 | 0.00 | 39 | 1011.9 |
| 20260831222019 | 36 | 142 | 1.6 | 6.4 | 0.00 | 0.00 | 0.00 | 39 | 1011.9 |
| 20260831221518 | 36 | 215 | 0.0 | 16.1 | 0.00 | 0.00 | 0.00 | 39 | 1011.9 |
| 20260831221018 | 36 | 103 | 9.7 | 16.1 | 0.00 | 0.00 | 0.00 | 39 | 1011.9 |
| 20260831220519 | 37 | 116 | 3.2 | 14.5 | 0.00 | 0.00 | 0.00 | 38 | 1011.8 |
| 20260831220018 | 37 | 87 | 12.9 | 14.5 | 0.00 | 0.00 | 0.00 | 39 | 1011.7 |
| 20260831215018 | 37 | 127 | 3.2 | 11.3 | 0.00 | 0.00 | 0.00 | 39 | 1011.9 |
| 20260831214019 | 37 | 94 | 9.7 | 12.9 | 0.00 | 0.00 | 0.00 | 39 | 1012.2 |
| 20260831213518 | 37 | 136 | 12.9 | 12.9 | 0.00 | 0.00 | 0.00 | 39 | 1012.3 |
| 20260831213018 | 37 | 142 | 1.6 | 6.4 | 0.00 | 0.00 | 0.00 | 39 | 1012.3 |
| 20260831212518 | 37 | 296 | 6.4 | 6.4 | 0.00 | 0.00 | 0.00 | 40 | 1012.3 |
| 20260831212018 | 37 | 128 | 1.6 | 4.8 | 0.00 | 0.00 | 0.00 | 40 | 1012.3 |
| 20260831211518 | 37 | 234 | 1.6 | 6.4 | 0.00 | 0.00 | 0.00 | 40 | 1012.4 |
| 20260831211018 | 36 | 307 | 1.6 | 16.1 | 0.00 | 0.00 | 0.00 | 41 | 1012.5 |
| 20260831210018 | 36 | 99 | 4.8 | 4.8 | 0.00 | 0.00 | 0.00 | 41 | 1012.5 |
| 20260831205518 | 36 | 147 | 1.6 | 11.3 | 0.00 | 0.00 | 0.00 | 41 | 1012.7 |
| 20260831205018 | 36 | 179 | 3.2 | 14.5 | 0.00 | 0.00 | 0.00 | 42 | 1012.9 |
| 20260831204518 | 36 | 99 | 14.5 | 14.5 | 0.00 | 0.00 | 0.00 | 41 | 1012.9 |
| 20260831204018 | 36 | 169 | 9.7 | 11.3 | 0.00 | 0.00 | 0.00 | 41 | 1013.0 |
| 20260831203518 | 36 | 218 | 4.8 | 11.3 | 0.00 | 0.00 | 0.00 | 42 | 1013.3 |
| 20260831203018 | 36 | 111 | 3.2 | 9.7 | 0.00 | 0.00 | 0.00 | 42 | 1013.4 |
| 20260831202018 | 36 | 118 | 1.6 | 8.0 | 0.00 | 0.00 | 0.00 | 45 | 1013.5 |
| 20260831201517 | 36 | 188 | 1.6 | 14.5 | 0.00 | 0.00 | 0.00 | 45 | 1013.6 |
| 20260831200517 | 36 | 33 | 1.6 | 11.3 | 0.00 | 0.00 | 0.00 | 45 | 1013.7 |
| 20260831200017 | 36 | 82 | 8.0 | 11.3 | 0.00 | 0.00 | 0.00 | 45 | 1013.8 |
| 20260831195517 | 36 | 185 | 3.2 | 8.0 | 0.00 | 0.00 | 0.00 | 45 | 1014.0 |
| 20260831195017 | 36 | 155 | 6.4 | 6.4 | 0.00 | 0.00 | 0.00 | 46 | 1014.1 |
| 20260831194517 | 36 | 90 | 3.2 | 4.8 | 0.00 | 0.00 | 0.00 | 46 | 1014.1 |
| 20260831193517 | 35 | 113 | 1.6 | 8.0 | 0.00 | 0.00 | 0.00 | 48 | 1014.2 |
| 20260831193017 | 35 | 115 | 6.4 | 9.7 | 0.00 | 0.00 | 0.00 | 48 | 1014.2 |
| 20260831192517 | 35 | 104 | 9.7 | 9.7 | 0.00 | 0.00 | 0.00 | 48 | 1014.3 |
| 20260831192017 | 35 | 190 | 1.6 | 6.4 | 0.00 | 0.00 | 0.00 | 48 | 1014.3 |
| 20260831191516 | 35 | 226 | 6.4 | 9.7 | 0.00 | 0.00 | 0.00 | 49 | 1014.3 |
| 20260831191016 | 35 | 105 | 6.4 | 17.7 | 0.00 | 0.00 | 0.00 | 49 | 1014.5 |
| 20260831190016 | 35 | 165 | 3.2 | 12.9 | 0.00 | 0.00 | 0.00 | 51 | 1014.6 |
| 20260831185517 | 35 | 189 | 4.8 | 17.7 | 0.00 | 0.00 | 0.00 | 51 | 1014.8 |
| 20260831185016 | 35 | 89 | 14.5 | 17.7 | 0.00 | 0.00 | 0.00 | 51 | 1014.8 |
| 20260831184516 | 35 | 130 | 11.3 | 11.3 | 0.00 | 0.00 | 0.00 | 52 | 1014.9 |
| 20260831183516 | 35 | 110 | 6.4 | 11.3 | 0.00 | 0.00 | 0.00 | 52 | 1014.9 |
| 20260831183016 | 34 | 281 | 4.8 | 8.0 | 0.00 | 0.00 | 0.00 | 53 | 1014.9 |
| 20260831182516 | 34 | 130 | 8.0 | 9.7 | 0.00 | 0.00 | 0.00 | 55 | 1015.0 |
| 20260831182016 | 34 | 223 | 1.6 | 17.7 | 0.00 | 0.00 | 0.00 | 55 | 1015.0 |
| 20260831181516 | 33 | 98 | 11.3 | 17.7 | 0.00 | 0.00 | 0.00 | 55 | 1015.0 |
| 20260831181016 | 33 | 97 | 4.8 | 12.9 | 0.00 | 0.00 | 0.00 | 56 | 1015.0 |
| 20260831180516 | 33 | 95 | 6.4 | 12.9 | 0.00 | 0.00 | 0.00 | 56 | 1015.1 |
| 20260831180015 | 33 | 290 | 8.0 | 12.9 | 0.00 | 0.00 | 0.00 | 57 | 1015.2 |
| 20260831175515 | 33 | 296 | 3.2 | 14.5 | 0.00 | 0.00 | 0.00 | 59 | 1015.2 |
| 20260831175016 | 33 | 125 | 6.4 | 14.5 | 0.00 | 0.00 | 0.00 | 59 | 1015.4 |
| 20260831174515 | 33 | 334 | 4.8 | 9.7 | 0.00 | 0.00 | 0.00 | 60 | 1015.5 |
| 20260831173515 | 33 | 103 | 6.4 | 12.9 | 0.00 | 0.00 | 0.00 | 61 | 1015.7 |
| 20260831173015 | 33 | 180 | 3.2 | 8.0 | 0.00 | 0.00 | 0.00 | 62 | 1015.9 |
| 20260831172515 | 33 | 144 | 0.0 | 11.3 | 0.00 | 0.00 | 0.00 | 61 | 1015.8 |
| 20260831172015 | 32 | 159 | 6.4 | 11.3 | 0.00 | 0.00 | 0.00 | 63 | 1015.8 |
| 20260831171515 | 32 | 113 | 1.6 | 16.1 | 0.00 | 0.00 | 0.00 | 64 | 1015.9 |
| 20260831171015 | 32 | 130 | 12.9 | 16.1 | 0.00 | 0.00 | 0.00 | 64 | 1015.9 |
| 20260831170015 | 31 | 150 | 6.4 | 8.0 | 0.00 | 0.00 | 0.00 | 67 | 1016.0 |
| 20260831165515 | 31 | 167 | 4.8 | 4.8 | 0.00 | 0.00 | 0.00 | 68 | 1016.0 |
| 20260831164515 | 31 | 318 | 1.6 | 6.4 | 0.00 | 0.00 | 0.00 | 68 | 1016.1 |
| 20260831164014 | 31 | 287 | 3.2 | 6.4 | 0.00 | 0.00 | 0.00 | 69 | 1016.1 |
| 20260831163514 | 31 | 138 | 0.0 | 3.2 | 0.00 | 0.00 | 0.00 | 69 | 1016.0 |
| 20260831162514 | 31 | 148 | 4.8 | 11.3 | 0.00 | 0.00 | 0.00 | 70 | 1016.1 |
| 20260831162022 | 31 | 313 | 1.6 | 4.8 | 0.00 | 0.00 | 0.00 | 70 | 1016.1 |
| 20260831161514 | 31 | 189 | 0.0 | 4.8 | 0.00 | 0.00 | 0.00 | 71 | 1016.1 |
| 20260831161014 | 31 | 166 | 1.6 | 6.4 | 0.00 | 0.00 | 0.00 | 70 | 1016.1 |
| 20260831160015 | 31 | 142 | 3.2 | 9.7 | 0.00 | 0.00 | 0.00 | 71 | 1016.0 |
| 20260831155514 | 31 | 135 | 3.2 | 11.3 | 0.00 | 0.00 | 0.00 | 71 | 1016.2 |
| 20260831155014 | 31 | 174 | 4.8 | 14.5 | 0.00 | 0.00 | 0.00 | 71 | 1016.2 |
| 20260831154514 | 31 | 190 | 3.2 | 14.5 | 0.00 | 0.00 | 0.00 | 71 | 1016.0 |
| 20260831154014 | 30 | 281 | 3.2 | 16.1 | 0.00 | 0.00 | 0.00 | 72 | 1015.9 |
| 20260831153514 | 30 | 93 | 11.3 | 16.1 | 0.00 | 0.00 | 0.00 | 73 | 1015.9 |
| 20260831152514 | 30 | 181 | 4.8 | 9.7 | 0.00 | 0.00 | 0.00 | 74 | 1015.9 |
| 20260831152014 | 30 | 123 | 1.6 | 8.0 | 0.00 | 0.00 | 0.00 | 74 | 1015.9 |
| 20260831150514 | 30 | 115 | 11.3 | 16.1 | 0.00 | 0.00 | 0.00 | 75 | 1015.9 |
| 20260831150014 | 29 | 111 | 9.7 | 11.3 | 0.00 | 0.00 | 0.00 | 77 | 1015.9 |
| 20260831145514 | 28 | 238 | 6.4 | 12.9 | 0.00 | 0.00 | 0.00 | 77 | 1015.8 |
| 20260831145014 | 28 | 130 | 4.8 | 12.9 | 0.00 | 0.00 | 0.00 | 78 | 1015.8 |
| 20260831144513 | 28 | 140 | 4.8 | 8.0 | 0.00 | 0.00 | 0.00 | 78 | 1015.7 |
| 20260831143517 | 28 | 123 | 12.9 | 12.9 | 0.00 | 0.00 | 0.00 | 79 | 1015.7 |
| 20260831142513 | 28 | 140 | 3.2 | 6.4 | 0.00 | 0.00 | 0.00 | 79 | 1015.7 |
| 20260831142013 | 28 | 142 | 0.0 | 6.4 | 0.00 | 0.00 | 0.00 | 79 | 1015.7 |
| 20260831141513 | 28 | 144 | 0.0 | 6.4 | 0.00 | 0.00 | 0.00 | 80 | 1015.7 |
| 20260831141014 | 28 | 153 | 0.0 | 11.3 | 0.00 | 0.00 | 0.00 | 80 | 1015.6 |
| 20260831140513 | 28 | 142 | 1.6 | 11.3 | 0.00 | 0.00 | 0.00 | 80 | 1015.6 |
| 20260831140013 | 28 | 248 | 1.6 | 6.4 | 0.00 | 0.00 | 0.00 | 80 | 1015.6 |
| 20260831135513 | 27 | 126 | 6.4 | 6.4 | 0.00 | 0.00 | 0.00 | 80 | 1015.6 |
| 20260831134513 | 27 | 140 | 0.0 | 3.2 | 0.00 | 0.00 | 0.00 | 81 | 1015.4 |
| 20260831134013 | 27 | 175 | 3.2 | 3.2 | 0.00 | 0.00 | 0.00 | 81 | 1015.3 |
| 20260831133513 | 27 | 107 | 0.0 | 1.6 | 0.00 | 0.00 | 0.00 | 81 | 1015.2 |
| 20260831133013 | 27 | 119 | 0.0 | 0.0 | 0.00 | 0.00 | 0.00 | 81 | 1015.2 |
| 20260831132513 | 27 | 116 | 0.0 | 0.0 | 0.00 | 0.00 | 0.00 | 81 | 1015.2 |
| 20260831132013 | 26 | 294 | 0.0 | 1.6 | 0.00 | 0.00 | 0.00 | 81 | 1015.2 |
| 20260831131513 | 26 | 150 | 0.0 | 3.2 | 0.00 | 0.00 | 0.00 | 81 | 1015.2 |
| 20260831131013 | 26 | 224 | 0.0 | 4.8 | 0.00 | 0.00 | 0.00 | 81 | 1015.1 |
| 20260831130013 | 26 | 144 | 3.2 | 6.4 | 0.00 | 0.00 | 0.00 | 81 | 1015.1 |
| 20260831125013 | 26 | 140 | 0.0 | 1.6 | 0.00 | 0.00 | 0.00 | 82 | 1014.9 |
| 20260831124512 | 26 | 140 | 0.0 | 3.2 | 0.00 | 0.00 | 0.00 | 82 | 1014.9 |
| 20260831124013 | 26 | 149 | 1.6 | 3.2 | 0.00 | 0.00 | 0.00 | 82 | 1014.8 |
| 20260831123512 | 26 | 176 | 0.0 | 0.0 | 0.00 | 0.00 | 0.00 | 82 | 1014.8 |
| 20260831123012 | 26 | 148 | 0.0 | 1.6 | 0.00 | 0.00 | 0.00 | 82 | 1014.9 |
| 20260831122512 | 26 | 205 | 0.0 | 1.6 | 0.00 | 0.00 | 0.00 | 82 | 1014.8 |
| 20260831122012 | 26 | 199 | 0.0 | 1.6 | 0.00 | 0.00 | 0.00 | 82 | 1014.7 |
| 20260831121512 | 26 | 184 | 0.0 | 3.2 | 0.00 | 0.00 | 0.00 | 82 | 1014.6 |
| 20260831121012 | 26 | 226 | 1.6 | 3.2 | 0.00 | 0.00 | 0.00 | 82 | 1014.6 |
| 20260831120512 | 26 | 178 | 0.0 | 0.0 | 0.00 | 0.00 | 0.00 | 82 | 1014.6 |
| 20260831120012 | 26 | 178 | 0.0 | 0.0 | 0.00 | 0.00 | 0.00 | 82 | 1014.6 |
| 20260831115512 | 26 | 205 | 0.0 | 0.0 | 0.00 | 0.00 | 0.00 | 81 | 1014.5 |
| 20260831115012 | 26 | 205 | 0.0 | 0.0 | 0.00 | 0.00 | 0.00 | 81 | 1014.6 |
| 20260831114512 | 26 | 205 | 0.0 | 0.0 | 0.00 | 0.00 | 0.00 | 82 | 1014.6 |
| 20260831114012 | 26 | 205 | 0.0 | 0.0 | 0.00 | 0.00 | 0.00 | 82 | 1014.7 |
| 20260831113511 | 26 | 148 | 0.0 | 0.0 | 0.00 | 0.00 | 0.00 | 81 | 1014.8 |
| 20260831113012 | 26 | 148 | 0.0 | 0.0 | 0.00 | 0.00 | 0.00 | 81 | 1014.8 |
| 20260831112512 | 26 | 148 | 0.0 | 3.2 | 0.00 | 0.00 | 0.00 | 81 | 1014.7 |
| 20260831111511 | 26 | 169 | 0.0 | 4.8 | 0.00 | 0.00 | 0.00 | 81 | 1014.7 |
| 20260831111011 | 26 | 166 | 0.0 | 4.8 | 0.00 | 0.00 | 0.00 | 81 | 1014.7 |
| 20260831110511 | 26 | 136 | 4.8 | 4.8 | 0.00 | 0.00 | 0.00 | 81 | 1014.7 |